Location: Ascoli Piceno
(42.8500°N, 13.5670°E)
Time: 13:09:22
(UTC+02:00)

ISS - Visible Passes

Search period start: 11 May 2021 00:00
Search period end: 21 May 2021 00:00
Orbit: 417 x 422 km, 51.6° (Epoch: 11 May)

Date Brightness Start Highest point End Pass type
(mag) Time Alt. Az. Time Alt. Az. Time Alt. Az.
11 May -1.1 02:04:21 20° N 02:04:21 20° N 02:06:42 10° NE visible
11 May -1.1 03:39:08 10° NW 03:41:44 20° N 03:44:20 10° ENE visible
11 May -2.9 05:15:45 10° NW 05:19:05 55° NNE 05:22:25 10° ESE visible
12 May -0.8 01:18:16 16° NNE 01:18:16 16° NNE 01:19:17 10° NE visible
12 May -0.9 02:51:38 10° NW 02:54:06 18° N 02:56:34 10° NE visible
12 May -2.2 04:28:23 10° NW 04:31:35 38° NNE 04:34:46 10° E visible
13 May -0.9 02:05:02 15° NNW 02:06:26 18° N 02:08:52 10° NE visible
13 May -1.6 03:41:01 10° NW 03:44:02 29° NNE 03:47:02 10° E visible
14 May -1.0 01:18:38 19° N 01:18:47 19° N 01:21:16 10° NE visible
14 May -1.3 02:53:39 10° NW 02:56:26 23° NNE 02:59:14 10° ENE visible
14 May -3.8 04:30:13 10° WNW 04:33:36 88° NNE 04:36:59 10° ESE visible
14 May -2.3 21:14:55 10° S 21:17:18 18° SE 21:19:43 10° E visible
14 May -3.3 22:50:30 10° WSW 22:53:49 60° NNW 22:55:36 25° NE visible
15 May -1.1 00:28:31 10° WNW 00:31:09 20° N 00:33:46 10° NE visible
15 May -1.0 02:06:13 10° NW 02:08:48 20° N 02:11:24 10° ENE visible
15 May -3.1 03:42:50 10° NW 03:46:09 56° NNE 03:49:29 10° ESE visible
15 May -3.9 22:03:02 10° SW 22:06:23 86° SE 22:09:46 10° ENE visible
15 May -1.3 23:40:43 10° WNW 23:43:31 24° NNW 23:46:21 10° NE visible
16 May -0.9 01:18:42 10° NW 01:21:10 18° N 01:23:38 10° NE visible
16 May -2.3 02:55:27 10° NW 02:58:39 38° NNE 03:01:50 10° E visible
16 May -3.1 04:32:21 10° WNW 04:35:26 33° SW 04:38:29 10° SSE visible
16 May -3.6 21:15:43 10° SW 21:18:59 51° SE 21:22:17 10° ENE visible
16 May -1.7 22:52:55 10° W 22:55:56 30° NNW 22:58:58 10° NE visible
17 May -0.8 00:31:05 10° NW 00:33:30 18° N 00:35:56 10° NE visible
17 May -1.7 02:08:05 10° NW 02:11:06 29° NNE 02:14:05 10° E visible
17 May -3.8 03:45:03 12° WNW 03:48:04 55° SW 03:51:23 10° SE visible
17 May -2.3 22:05:11 10° W 22:08:23 40° NNW 22:11:36 10° NE visible
17 May -0.9 23:43:23 10° NW 23:45:51 19° N 23:48:19 10° NE visible
18 May -1.2 01:20:42 10° NW 01:22:58 22° N 01:22:58 22° N visible
18 May -3.1 21:17:34 10° WSW 21:20:53 60° NNW 21:24:13 10° NE visible
18 May -1.0 22:55:36 10° WNW 22:58:12 20° N 23:00:49 10° NE visible
19 May -1.1 00:33:17 10° NW 00:35:52 20° N 00:36:33 19° NNE visible
19 May -1.3 22:07:46 10° WNW 22:10:35 24° NNW 22:13:23 10° NE visible
19 May -1.0 23:45:46 10° NW 23:48:13 18° N 23:50:23 11° NE visible
20 May -1.0 01:22:30 10° NW 01:23:19 16° NW 01:23:19 16° NW visible
20 May -1.7 21:19:58 10° W 21:22:59 30° NNW 21:26:01 10° NE visible
20 May -0.9 22:58:09 10° NW 23:00:33 18° N 23:02:58 10° NE visible
